Terug naar catalogus

STARLINK-34231

ActiefCommunicatieVLEO
NORAD 64175·PAYLOAD·🇺🇸 United States

Gelanceerd May 28, 2025 vanaf Cape Canaveral Space Force Station

Loading…

Volgende Passages (komende 24 uur)

TLE

VersSource: CelesTrak SupGP

Epoch: Sep 15, 2026, 02:33 UTC

1 64175C 25113F   26258.10673611  .00019437  00000+0  62503-3 0  2583
2 64175  53.1585 289.9731 0001184  97.0016 296.7051 15.31693099    15

Volg STARLINK-34231 in realtime met AllMySat

Download on the App Store